Annecy-Haute-Savoie-Mont Blanc Airport

Jump to: basic info | weather | frequencies | runways | comments

Related pages: nearby airports | nearby navaids | notams | map

Basic information (top)

Codes: NCY LFLP
Location: lon 45.929199, lat 6.098760, elev 1,521 ft / 464 m msl
Status: medium_airport
Scheduled airline service: yes
Links: Wikipedia Mobile

Weather (top)

Current conditions (rec'd 2014/08/27 16:30Z):

LFLP 271630Z AUTO 29006KT 9999 NSC 21/11 Q1017

Airport forecast (rec'd 2014/08/27 12:00Z):

TAF LFLP 271100Z 2712/2812 VRB02KT 9999 SCT030 SCT072 
      BECMG 2718/2721 FEW050 
      BECMG 2721/2724 CAVOK 
      BECMG 2808/2810 FEW020

Frequencies (top)

Verify before use: may be inaccurate or out of date.

AFIS: 118.2 MHz (INFO)
APP: 123.7 MHz (CHAMBERY APP)
TWR: 118.2 MHz (ANNECY TWR)

Runways (top)

04/22: 5,348 x 98 ft (1,630 x 30 m) — paved — lighted — threshold 04 displaced 820 ft (250 m) — threshold 22 displaced 755 ft (230 m)

Latest comments (top)

No comments yet for Annecy-Haute-Savoie-Mont Blanc Airport

More... (top)

See also NOTAMs and nearby airports and navaids, or visit the Annecy-Haute-Savoie-Mont Blanc Airport page at the main OurAirports website..